User: anonymous   Login
Location: *
(46.3500°N, 10.9000°E)
Time: 21:05:35
(UTC+00:00)
Language:

Altair - Orbit

View from above orbital plane
View from above orbital plane
View from above satellite
View from above satellite

Ground track
Ground track

The orbit data is extracted from the following two-line orbital elements,

1 00050U 60009B   21107.41663567 -.00000095  00000-0 -84160-4 0  9998
2 00050  47.2303 257.8698 0114030 151.6089 209.0974 12.20116598707336
Epoch (UTC): 17 April 2021 09:59:57
Eccentricity: 0.0114030
inclination: 47.2303°
perigee height: 1501 km
apogee height: 1683 km
right ascension of ascending node: 257.8698°
argument of perigee: 151.6089°
revolutions per day: 12.20116598
mean anomaly at epoch: 209.0974°
orbit number at epoch: 70733

The dashed part of the orbit path shows where the satellite is in the earth's shadow,  

DLR